Time,TemperatureF,DewpointF,PressureIn,WindDirection,WindDirectionDegrees,WindSpeedMPH,WindSpeedGustMPH,Humidity,HourlyPrecipIn,Conditions,Clouds,dailyrainin,SoftwareType,DateUTC
2013-01-28 00:01:00,39.3,36.6,29.81,WNW,285,0.0,0.0,90,0.00,,---,0.01,VWS V14.01,2013-01-28 06:01:00,
2013-01-28 00:02:00,39.3,36.6,29.81,WNW,285,0.0,0.0,90,0.00,,---,0.00,VWS V14.01,2013-01-28 06:02:00,
2013-01-28 00:03:00,39.3,36.6,29.81,WNW,285,0.0,0.0,90,0.00,,---,0.00,VWS V14.01,2013-01-28 06:03:00,
2013-01-28 00:04:00,39.2,36.5,29.81,WNW,285,0.0,0.0,90,0.00,,---,0.00,VWS V14.01,2013-01-28 06:04:00,
2013-01-28 00:06:00,39.2,36.5,29.81,WNW,285,0.0,0.0,90,0.00,,---,0.00,VWS V14.01,2013-01-28 06:06:00,
2013-01-28 00:07:00,39.2,36.5,29.81,WNW,285,0.0,0.0,90,0.00,,---,0.00,VWS V14.01,2013-01-28 06:07:00,
2013-01-28 00:08:00,39.2,36.5,29.81,WNW,285,0.0,0.0,90,0.00,,---,0.00,VWS V14.01,2013-01-28 06:08:00,
2013-01-28 00:09:00,39.2,36.5,29.81,WNW,285,0.0,0.0,90,0.00,,---,0.00,VWS V14.01,2013-01-28 06:09:00,
2013-01-28 00:11:00,39.2,36.5,29.81,WNW,285,0.0,0.0,90,0.00,,---,0.00,VWS V14.01,2013-01-28 06:11:00,
2013-01-28 00:12:00,39.2,36.5,29.81,WNW,285,0.0,0.0,90,0.00,,---,0.00,VWS V14.01,2013-01-28 06:12:00,
2013-01-28 00:13:00,39.2,36.5,29.81,WNW,285,0.0,0.0,90,0.00,,---,0.00,VWS V14.01,2013-01-28 06:13:00,
2013-01-28 00:14:00,39.2,36.5,29.81,WNW,285,0.0,0.0,90,0.00,,---,0.00,VWS V14.01,2013-01-28 06:14:00,
2013-01-28 00:16:00,39.3,36.6,29.81,WNW,285,0.0,0.0,90,0.00,,---,0.00,VWS V14.01,2013-01-28 06:16:00,
2013-01-28 00:17:00,39.3,36.6,29.81,WNW,285,0.0,0.0,90,0.00,,---,0.00,VWS V14.01,2013-01-28 06:17:00,
2013-01-28 00:18:00,39.3,36.9,29.81,WNW,285,0.0,0.0,91,0.00,,---,0.00,VWS V14.01,2013-01-28 06:18:00,
2013-01-28 00:19:00,39.3,36.9,29.81,WNW,285,0.0,0.0,91,0.00,,---,0.00,VWS V14.01,2013-01-28 06:19:00,
2013-01-28 01:07:00,38.3,36.2,29.80,WNW,285,0.0,0.0,92,0.00,,---,0.00,VWS V14.01,2013-01-28 07:07:00,
2013-01-28 01:08:00,38.3,36.2,29.80,WNW,285,0.0,0.0,92,0.00,,---,0.00,VWS V14.01,2013-01-28 07:08:00,
2013-01-28 01:12:00,38.0,35.6,29.80,WNW,285,0.0,0.0,91,0.00,,---,0.00,VWS V14.01,2013-01-28 07:12:00,
2013-01-28 01:13:00,38.0,35.6,29.80,WNW,285,0.0,0.0,91,0.00,,---,0.00,VWS V14.01,2013-01-28 07:13:00,
2013-01-28 01:17:00,37.6,35.2,29.80,WNW,285,0.0,0.0,91,0.00,,---,0.00,VWS V14.01,2013-01-28 07:17:00,
2013-01-28 01:18:00,37.6,35.2,29.80,WNW,285,0.0,0.0,91,0.00,,---,0.00,VWS V14.01,2013-01-28 07:18:00,
2013-01-28 01:23:00,37.3,35.2,29.80,WNW,285,0.0,0.0,92,0.00,,---,0.00,VWS V14.01,2013-01-28 07:23:00,
2013-01-28 01:28:00,36.9,34.5,29.80,WNW,285,0.0,0.0,91,0.00,,---,0.00,VWS V14.01,2013-01-28 07:28:00,
2013-01-28 01:33:00,36.6,34.5,29.80,WNW,285,0.0,0.0,92,0.00,,---,0.00,VWS V14.01,2013-01-28 07:33:00,
2013-01-28 01:34:00,36.5,34.1,29.80,WNW,285,0.0,0.0,91,0.00,,---,0.00,VWS V14.01,2013-01-28 07:34:00,
2013-01-28 01:38:00,36.2,34.1,29.80,WNW,285,0.0,0.0,92,0.00,,---,0.00,VWS V14.01,2013-01-28 07:38:00,
2013-01-28 01:39:00,36.2,34.1,29.80,WNW,285,0.0,0.0,92,0.00,,---,0.00,VWS V14.01,2013-01-28 07:39:00,
2013-01-28 01:43:00,35.9,33.8,29.80,WNW,285,0.0,0.0,92,0.00,,---,0.00,VWS V14.01,2013-01-28 07:43:00,
2013-01-28 01:44:00,35.9,33.8,29.80,WNW,285,0.0,0.0,92,0.00,,---,0.00,VWS V14.01,2013-01-28 07:44:00,
2013-01-28 01:48:00,35.8,33.7,29.80,WNW,285,0.0,0.0,92,0.00,,---,0.00,VWS V14.01,2013-01-28 07:48:00,
2013-01-28 01:49:00,35.8,33.7,29.80,WNW,285,0.0,0.0,92,0.00,,---,0.00,VWS V14.01,2013-01-28 07:49:00,
2013-01-28 01:53:00,35.6,33.5,29.80,WNW,285,0.0,0.0,92,0.00,,---,0.00,VWS V14.01,2013-01-28 07:53:00,
2013-01-28 01:54:00,35.6,33.5,29.80,WNW,285,0.0,0.0,92,0.00,,---,0.00,VWS V14.01,2013-01-28 07:54:00,
2013-01-28 01:58:00,35.5,33.4,29.80,WNW,285,0.0,0.0,92,0.00,,---,0.00,VWS V14.01,2013-01-28 07:58:00,
2013-01-28 01:59:00,35.5,33.4,29.80,WNW,285,0.0,0.0,92,0.00,,---,0.00,VWS V14.01,2013-01-28 07:59:00,
2013-01-28 02:00:00,35.3,33.2,29.80,WNW,285,0.0,0.0,92,0.00,,---,0.00,VWS V14.01,2013-01-28 08:00:00,
2013-01-28 02:03:00,35.2,33.1,29.80,WNW,285,0.0,0.0,92,0.00,,---,0.00,VWS V14.01,2013-01-28 08:03:00,
2013-01-28 02:04:00,35.2,33.1,29.80,WNW,285,0.0,0.0,92,0.00,,---,0.00,VWS V14.01,2013-01-28 08:04:00,
2013-01-28 02:05:00,35.2,33.1,29.80,WNW,285,0.0,0.0,92,0.00,,---,0.00,VWS V14.01,2013-01-28 08:05:00,
2013-01-28 02:09:00,34.4,32.3,29.80,WNW,285,0.0,0.0,92,0.00,,---,0.00,VWS V14.01,2013-01-28 08:09:00,
2013-01-28 02:10:00,34.4,32.3,29.80,WNW,285,0.0,0.0,92,0.00,,---,0.00,VWS V14.01,2013-01-28 08:10:00,
2013-01-28 02:14:00,34.1,32.3,29.80,WNW,285,0.0,0.0,93,0.00,,---,0.00,VWS V14.01,2013-01-28 08:14:00,
2013-01-28 02:15:00,34.1,32.3,29.80,WNW,285,0.0,0.0,93,0.00,,---,0.00,VWS V14.01,2013-01-28 08:15:00,
2013-01-28 02:19:00,34.0,32.2,29.80,WNW,285,0.0,0.0,93,0.00,,---,0.00,VWS V14.01,2013-01-28 08:19:00,
2013-01-28 02:20:00,33.8,32.0,29.80,WNW,285,0.0,0.0,93,0.00,,---,0.00,VWS V14.01,2013-01-28 08:20:00,
2013-01-28 02:24:00,33.7,31.9,29.80,WNW,285,0.0,0.0,93,0.00,,---,0.00,VWS V14.01,2013-01-28 08:24:00,
2013-01-28 02:25:00,33.7,31.9,29.80,WNW,285,0.0,0.0,93,0.00,,---,0.00,VWS V14.01,2013-01-28 08:25:00,
2013-01-28 02:29:00,33.5,31.7,29.80,WNW,285,0.0,0.0,93,0.00,,---,0.00,VWS V14.01,2013-01-28 08:29:00,
2013-01-28 02:30:00,33.5,31.7,29.80,WNW,285,0.0,0.0,93,0.00,,---,0.00,VWS V14.01,2013-01-28 08:30:00,
2013-01-28 02:31:00,33.5,31.7,29.79,WNW,285,0.0,0.0,93,0.00,,---,0.00,VWS V14.01,2013-01-28 08:31:00,
2013-01-28 02:34:00,33.2,31.4,29.79,WNW,285,0.0,0.0,93,0.00,,---,0.00,VWS V14.01,2013-01-28 08:34:00,
2013-01-28 02:35:00,33.2,31.4,29.79,WNW,285,0.0,0.0,93,0.00,,---,0.00,VWS V14.01,2013-01-28 08:35:00,
2013-01-28 02:36:00,33.1,31.3,29.79,WNW,285,0.0,0.0,93,0.00,,---,0.00,VWS V14.01,2013-01-28 08:36:00,
2013-01-28 02:39:00,32.9,31.1,29.79,WNW,285,0.0,0.0,93,0.00,,---,0.00,VWS V14.01,2013-01-28 08:39:00,
2013-01-28 02:40:00,32.9,31.1,29.79,WNW,285,0.0,0.0,93,0.00,,---,0.00,VWS V14.01,2013-01-28 08:40:00,
2013-01-28 02:41:00,32.9,31.1,29.79,WNW,285,0.0,0.0,93,0.00,,---,0.00,VWS V14.01,2013-01-28 08:41:00,
2013-01-28 02:44:00,32.8,31.0,29.79,WNW,285,0.0,0.0,93,0.00,,---,0.00,VWS V14.01,2013-01-28 08:44:00,
2013-01-28 02:45:00,32.7,30.9,29.79,WNW,285,0.0,0.0,93,0.00,,---,0.00,VWS V14.01,2013-01-28 08:45:00,
2013-01-28 02:46:00,32.7,30.9,29.79,WNW,285,0.0,0.0,93,0.00,,---,0.00,VWS V14.01,2013-01-28 08:46:00,
2013-01-28 02:49:00,33.7,32.4,29.79,WNW,285,2.0,4.0,95,0.00,,---,0.00,VWS V14.01,2013-01-28 08:49:00,
2013-01-28 02:50:00,33.8,32.5,29.79,WNW,285,2.0,4.0,95,0.00,,---,0.00,VWS V14.01,2013-01-28 08:50:00,
2013-01-28 02:51:00,34.0,32.7,29.79,WNW,285,2.0,2.0,95,0.00,,---,0.00,VWS V14.01,2013-01-28 08:51:00,
2013-01-28 02:55:00,34.4,33.1,29.79,WNW,285,1.0,2.0,95,0.00,,---,0.00,VWS V14.01,2013-01-28 08:55:00,
2013-01-28 02:56:00,34.4,32.9,29.79,WNW,285,2.0,2.0,94,0.00,,---,0.00,VWS V14.01,2013-01-28 08:56:00,
2013-01-28 03:00:00,34.4,32.9,29.79,WNW,285,0.0,2.0,94,0.00,,---,0.00,VWS V14.01,2013-01-28 09:00:00,
2013-01-28 03:01:00,34.4,32.9,29.79,WNW,285,0.0,0.0,94,0.00,,---,0.00,VWS V14.01,2013-01-28 09:01:00,
2013-01-28 03:02:00,34.4,32.9,29.79,WNW,285,0.0,0.0,94,0.00,,---,0.00,VWS V14.01,2013-01-28 09:02:00,
2013-01-28 03:05:00,34.4,32.9,29.79,WNW,285,0.0,0.0,94,0.00,,---,0.00,VWS V14.01,2013-01-28 09:05:00,
2013-01-28 03:06:00,34.4,32.9,29.79,WNW,285,0.0,0.0,94,0.00,,---,0.00,VWS V14.01,2013-01-28 09:06:00,
2013-01-28 03:07:00,34.4,32.9,29.79,WNW,285,0.0,0.0,94,0.00,,---,0.00,VWS V14.01,2013-01-28 09:07:00,
2013-01-28 03:10:00,34.4,32.9,29.79,WNW,285,0.0,0.0,94,0.00,,---,0.00,VWS V14.01,2013-01-28 09:10:00,
2013-01-28 03:11:00,34.4,32.9,29.79,WNW,285,0.0,0.0,94,0.00,,---,0.00,VWS V14.01,2013-01-28 09:11:00,
2013-01-28 03:12:00,34.4,32.9,29.79,WNW,285,0.0,0.0,94,0.00,,---,0.00,VWS V14.01,2013-01-28 09:12:00,
2013-01-28 03:15:00,34.4,33.1,29.78,WNW,285,0.0,0.0,95,0.00,,---,0.00,VWS V14.01,2013-01-28 09:15:00,
2013-01-28 03:16:00,34.4,33.1,29.78,WNW,285,0.0,0.0,95,0.00,,---,0.00,VWS V14.01,2013-01-28 09:16:00,
2013-01-28 03:17:00,34.4,33.1,29.78,WNW,285,0.0,0.0,95,0.00,,---,0.00,VWS V14.01,2013-01-28 09:17:00,
2013-01-28 03:20:00,34.4,33.1,29.78,WNW,285,0.0,0.0,95,0.00,,---,0.00,VWS V14.01,2013-01-28 09:20:00,
2013-01-28 03:21:00,34.4,33.1,29.78,WNW,285,0.0,0.0,95,0.00,,---,0.00,VWS V14.01,2013-01-28 09:21:00,
2013-01-28 03:22:00,34.3,33.0,29.78,WNW,285,0.0,0.0,95,0.00,,---,0.00,VWS V14.01,2013-01-28 09:22:00,
2013-01-28 03:25:00,34.3,33.0,29.78,WNW,285,0.0,0.0,95,0.00,,---,0.00,VWS V14.01,2013-01-28 09:25:00,
2013-01-28 03:26:00,34.3,33.0,29.78,WNW,285,0.0,0.0,95,0.00,,---,0.00,VWS V14.01,2013-01-28 09:26:00,
2013-01-28 03:27:00,34.3,33.0,29.78,WNW,285,0.0,0.0,95,0.00,,---,0.00,VWS V14.01,2013-01-28 09:27:00,
2013-01-28 03:30:00,34.4,33.1,29.77,WNW,285,0.0,0.0,95,0.00,,---,0.00,VWS V14.01,2013-01-28 09:30:00,
2013-01-28 03:31:00,34.6,33.3,29.77,WNW,285,0.0,0.0,95,0.00,,---,0.00,VWS V14.01,2013-01-28 09:31:00,
2013-01-28 03:32:00,34.6,33.3,29.77,WNW,285,0.0,0.0,95,0.00,,---,0.00,VWS V14.01,2013-01-28 09:32:00,
2013-01-28 03:35:00,34.7,33.4,29.77,WNW,285,0.0,0.0,95,0.00,,---,0.00,VWS V14.01,2013-01-28 09:35:00,
2013-01-28 03:36:00,34.7,33.4,29.77,WNW,285,0.0,0.0,95,0.00,,---,0.00,VWS V14.01,2013-01-28 09:36:00,
2013-01-28 03:37:00,34.7,33.4,29.77,WNW,285,0.0,0.0,95,0.00,,---,0.00,VWS V14.01,2013-01-28 09:37:00,
2013-01-28 03:41:00,34.9,33.6,29.77,WNW,285,0.0,0.0,95,0.00,,---,0.00,VWS V14.01,2013-01-28 09:41:00,
2013-01-28 03:42:00,34.9,33.6,29.77,WNW,285,0.0,0.0,95,0.00,,---,0.00,VWS V14.01,2013-01-28 09:42:00,
2013-01-28 03:46:00,35.0,33.7,29.77,WNW,285,0.0,0.0,95,0.00,,---,0.00,VWS V14.01,2013-01-28 09:46:00,
2013-01-28 03:47:00,35.0,33.7,29.77,WNW,285,0.0,0.0,95,0.00,,---,0.00,VWS V14.01,2013-01-28 09:47:00,
2013-01-28 03:48:00,35.0,33.7,29.77,WNW,285,0.0,0.0,95,0.00,,---,0.00,VWS V14.01,2013-01-28 09:48:00,
2013-01-28 03:51:00,35.0,33.7,29.77,WNW,285,0.0,0.0,95,0.00,,---,0.00,VWS V14.01,2013-01-28 09:51:00,
2013-01-28 03:52:00,35.0,33.7,29.77,WNW,285,0.0,0.0,95,0.00,,---,0.00,VWS V14.01,2013-01-28 09:52:00,
2013-01-28 03:53:00,35.2,33.9,29.77,WNW,285,0.0,0.0,95,0.00,,---,0.00,VWS V14.01,2013-01-28 09:53:00,
2013-01-28 03:56:00,35.5,34.5,29.77,WNW,285,0.0,0.0,96,0.00,,---,0.00,VWS V14.01,2013-01-28 09:56:00,
2013-01-28 03:57:00,35.6,34.6,29.77,WNW,285,0.0,0.0,96,0.00,,---,0.00,VWS V14.01,2013-01-28 09:57:00,
2013-01-28 03:58:00,35.6,34.6,29.77,WNW,285,0.0,0.0,96,0.00,,---,0.00,VWS V14.01,2013-01-28 09:58:00,
2013-01-28 04:01:00,35.6,34.6,29.76,WNW,285,0.0,0.0,96,0.00,,---,0.00,VWS V14.01,2013-01-28 10:01:00,
2013-01-28 04:02:00,35.8,34.8,29.76,WNW,285,0.0,0.0,96,0.00,,---,0.00,VWS V14.01,2013-01-28 10:02:00,
2013-01-28 09:19:00,48.9,47.8,29.76,SSW,193,11.0,11.0,96,0.00,,---,0.00,VWS V14.01,2013-01-28 15:19:00,
2013-01-28 09:20:00,48.9,47.8,29.76,SSW,193,11.0,11.0,96,0.00,,---,0.00,VWS V14.01,2013-01-28 15:20:00,
2013-01-28 09:24:00,49.2,48.1,29.76,SSW,193,8.0,11.0,96,0.00,,---,0.00,VWS V14.01,2013-01-28 15:24:00,
2013-01-28 09:25:00,49.2,48.1,29.76,SSW,193,7.0,11.0,96,0.00,,---,0.00,VWS V14.01,2013-01-28 15:25:00,
2013-01-28 09:29:00,49.4,48.0,29.76,South,185,10.0,11.0,95,0.00,,---,0.00,VWS V14.01,2013-01-28 15:29:00,
2013-01-28 09:30:00,49.4,48.0,29.76,South,185,10.0,11.0,95,0.00,,---,0.00,VWS V14.01,2013-01-28 15:30:00,
2013-01-28 09:35:00,49.6,48.2,29.76,South,187,11.0,12.0,95,0.00,,---,0.00,VWS V14.01,2013-01-28 15:35:00,
2013-01-28 09:36:00,49.5,47.8,29.76,South,188,14.0,14.0,94,0.00,,---,0.00,VWS V14.01,2013-01-28 15:36:00,
2013-01-28 09:39:00,49.6,48.0,29.76,South,188,9.0,15.0,94,0.00,,---,0.00,VWS V14.01,2013-01-28 15:39:00,
2013-01-28 09:41:00,49.6,48.0,29.76,South,188,6.0,15.0,94,0.00,,---,0.00,VWS V14.01,2013-01-28 15:41:00,
2013-01-28 09:45:00,49.8,47.9,29.76,South,186,6.0,10.0,93,0.00,,---,0.00,VWS V14.01,2013-01-28 15:45:00,
2013-01-28 09:46:00,49.9,48.0,29.75,South,186,6.0,10.0,93,0.00,,---,0.00,VWS V14.01,2013-01-28 15:46:00,
2013-01-28 09:50:00,50.1,48.2,29.75,South,186,7.0,10.0,93,0.00,,---,0.00,VWS V14.01,2013-01-28 15:50:00,
2013-01-28 09:51:00,50.1,48.2,29.75,South,186,7.0,8.0,93,0.00,,---,0.00,VWS V14.01,2013-01-28 15:51:00,
2013-01-28 09:55:00,50.4,48.2,29.75,South,186,7.0,11.0,92,0.00,,---,0.00,VWS V14.01,2013-01-28 15:55:00,
2013-01-28 09:56:00,50.5,48.0,29.75,South,184,6.0,11.0,91,0.00,,---,0.00,VWS V14.01,2013-01-28 15:56:00,
2013-01-28 10:00:00,50.7,47.9,29.75,South,184,10.0,11.0,90,0.00,,---,0.00,VWS V14.01,2013-01-28 16:00:00,
2013-01-28 10:01:00,50.8,48.0,29.75,South,182,6.0,8.0,90,0.00,,---,0.00,VWS V14.01,2013-01-28 16:01:00,
2013-01-28 10:11:00,50.8,48.6,29.75,South,182,5.0,8.0,92,0.00,,---,0.00,VWS V14.01,2013-01-28 16:11:00,
2013-01-28 10:16:00,52.5,46.2,29.75,SSW,193,14.0,16.0,79,0.00,,---,0.00,VWS V14.01,2013-01-28 16:16:00,
2013-01-28 10:17:00,52.6,44.9,29.75,SSW,194,15.0,16.0,75,0.00,,---,0.00,VWS V14.01,2013-01-28 16:17:00,
2013-01-28 10:21:00,53.2,44.8,29.75,SSW,193,11.0,11.0,73,0.00,,---,0.00,VWS V14.01,2013-01-28 16:21:00,
2013-01-28 10:22:00,53.3,44.5,29.75,SSW,194,10.0,13.0,72,0.00,,---,0.00,VWS V14.01,2013-01-28 16:22:00,
2013-01-28 10:23:00,53.3,44.5,29.75,SSW,194,12.0,13.0,72,0.00,,---,0.00,VWS V14.01,2013-01-28 16:23:00,
2013-01-28 10:26:00,53.6,44.1,29.75,SSW,194,14.0,15.0,70,0.00,,---,0.00,VWS V14.01,2013-01-28 16:26:00,
2013-01-28 10:27:00,53.8,43.9,29.75,SSW,193,10.0,15.0,69,0.00,,---,0.00,VWS V14.01,2013-01-28 16:27:00,
2013-01-28 10:28:00,53.9,44.3,29.75,SSW,196,12.0,15.0,70,0.00,,---,0.00,VWS V14.01,2013-01-28 16:28:00,
2013-01-28 10:31:00,54.2,43.5,29.75,SSW,194,8.0,8.0,67,0.00,,---,0.00,VWS V14.01,2013-01-28 16:31:00,
2013-01-28 10:32:00,54.5,44.2,29.75,SSW,194,12.0,13.0,68,0.00,,---,0.00,VWS V14.01,2013-01-28 16:32:00,
2013-01-28 10:33:00,54.7,43.6,29.75,SSW,207,13.0,14.0,66,0.00,,---,0.00,VWS V14.01,2013-01-28 16:33:00,
2013-01-28 10:36:00,55.0,42.7,29.75,SSW,202,12.0,17.0,63,0.00,,---,0.00,VWS V14.01,2013-01-28 16:36:00,
2013-01-28 10:37:00,55.1,42.8,29.75,SSW,201,17.0,17.0,63,0.00,,---,0.00,VWS V14.01,2013-01-28 16:37:00,
2013-01-28 10:38:00,55.3,42.5,29.75,SSW,202,11.0,17.0,62,0.00,,---,0.00,VWS V14.01,2013-01-28 16:38:00,
2013-01-28 11:03:00,58.1,43.0,29.74,South,190,14.0,17.0,57,0.00,,---,0.00,VWS V14.01,2013-01-28 17:03:00,
2013-01-28 11:04:00,58.3,43.2,29.74,South,190,11.0,17.0,57,0.00,,---,0.00,VWS V14.01,2013-01-28 17:04:00,
2013-01-28 11:09:00,58.3,41.8,29.74,South,191,15.0,17.0,54,0.00,,---,0.00,VWS V14.01,2013-01-28 17:09:00,
2013-01-28 11:14:00,58.4,41.3,29.74,SSW,198,14.0,18.0,53,0.00,,---,0.00,VWS V14.01,2013-01-28 17:14:00,
2013-01-28 11:19:00,58.7,40.6,29.74,SSW,198,15.0,21.0,51,0.00,,---,0.00,VWS V14.01,2013-01-28 17:19:00,
2013-01-28 11:20:00,58.7,41.1,29.74,SSW,198,17.0,21.0,52,0.00,,---,0.00,VWS V14.01,2013-01-28 17:20:00,
2013-01-28 11:24:00,59.5,41.9,29.74,SSW,205,16.0,18.0,52,0.00,,---,0.00,VWS V14.01,2013-01-28 17:24:00,
2013-01-28 11:25:00,59.6,41.5,29.74,SSW,206,12.0,20.0,51,0.00,,---,0.00,VWS V14.01,2013-01-28 17:25:00,
2013-01-28 11:29:00,59.9,41.8,29.74,SSW,194,16.0,20.0,51,0.00,,---,0.00,VWS V14.01,2013-01-28 17:29:00,
2013-01-28 11:30:00,59.9,41.8,29.73,SSW,194,12.0,20.0,51,0.00,,---,0.00,VWS V14.01,2013-01-28 17:30:00,
2013-01-28 11:34:00,60.4,42.2,29.73,SW,214,12.0,19.0,51,0.00,,---,0.00,VWS V14.01,2013-01-28 17:34:00,
2013-01-28 11:35:00,60.4,41.7,29.73,SW,215,12.0,19.0,50,0.00,,---,0.00,VWS V14.01,2013-01-28 17:35:00,
2013-01-28 11:39:00,60.9,42.2,29.73,SSW,209,10.0,19.0,50,0.00,,---,0.00,VWS V14.01,2013-01-28 17:39:00,
2013-01-28 11:40:00,60.9,42.2,29.73,SSW,209,11.0,19.0,50,0.00,,---,0.00,VWS V14.01,2013-01-28 17:40:00,
2013-01-28 11:44:00,61.3,42.0,29.73,SSW,205,16.0,17.0,49,0.00,,---,0.00,VWS V14.01,2013-01-28 17:44:00,
2013-01-28 11:55:00,61.3,42.0,29.73,SSW,205,15.0,17.0,49,0.00,,---,0.00,VWS V14.01,2013-01-28 17:55:00,
2013-01-28 12:00:00,62.6,42.7,29.71,SSW,199,17.0,20.0,48,0.00,,---,0.00,VWS V14.01,2013-01-28 18:00:00,
2013-01-28 12:05:00,62.7,42.8,29.71,SSW,196,16.0,20.0,48,0.00,,---,0.00,VWS V14.01,2013-01-28 18:05:00,
2013-01-28 12:06:00,62.9,42.9,29.71,SSW,197,10.0,20.0,48,0.00,,---,0.00,VWS V14.01,2013-01-28 18:06:00,
2013-01-28 12:10:00,63.4,42.8,29.71,SSW,196,11.0,20.0,47,0.00,,---,0.00,VWS V14.01,2013-01-28 18:10:00,
2013-01-28 12:11:00,63.5,43.5,29.71,South,177,11.0,20.0,48,0.00,,---,0.00,VWS V14.01,2013-01-28 18:11:00,
2013-01-28 12:15:00,64.0,43.4,29.69,SSW,198,14.0,19.0,47,0.00,,---,0.00,VWS V14.01,2013-01-28 18:15:00,
2013-01-28 12:16:00,64.0,43.9,29.69,SSW,198,11.0,19.0,48,0.00,,---,0.00,VWS V14.01,2013-01-28 18:16:00,
2013-01-28 12:17:00,64.2,44.1,29.69,SSW,192,13.0,19.0,48,0.00,,---,0.00,VWS V14.01,2013-01-28 18:17:00,
2013-01-28 12:20:00,64.5,43.8,29.69,SSW,202,14.0,19.0,47,0.00,,---,0.00,VWS V14.01,2013-01-28 18:20:00,
2013-01-28 12:21:00,64.5,43.8,29.69,South,182,11.0,13.0,47,0.00,,---,0.00,VWS V14.01,2013-01-28 18:21:00,
2013-01-28 12:22:00,64.7,44.0,29.69,South,183,10.0,16.0,47,0.00,,---,0.00,VWS V14.01,2013-01-28 18:22:00,
2013-01-28 12:25:00,64.8,43.6,29.69,South,188,12.0,21.0,46,0.00,,---,0.00,VWS V14.01,2013-01-28 18:25:00,
2013-01-28 12:26:00,64.8,44.1,29.69,South,178,12.0,21.0,47,0.00,,---,0.00,VWS V14.01,2013-01-28 18:26:00,
2013-01-28 12:27:00,65.0,44.3,29.69,South,177,10.0,21.0,47,0.00,,---,0.00,VWS V14.01,2013-01-28 18:27:00,
2013-01-28 12:30:00,65.6,43.7,29.67,South,184,13.0,21.0,45,0.00,,---,0.00,VWS V14.01,2013-01-28 18:30:00,
2013-01-28 12:31:00,65.6,43.7,29.67,South,183,10.0,22.0,45,0.00,,---,0.00,VWS V14.01,2013-01-28 18:31:00,
2013-01-28 12:32:00,65.6,43.7,29.67,South,173,13.0,22.0,45,0.00,,---,0.00,VWS V14.01,2013-01-28 18:32:00,
2013-01-28 12:35:00,65.8,43.9,29.67,SSW,197,13.0,22.0,45,0.00,,---,0.00,VWS V14.01,2013-01-28 18:35:00,
2013-01-28 12:36:00,65.8,43.9,29.67,SSW,196,16.0,22.0,45,0.00,,---,0.00,VWS V14.01,2013-01-28 18:36:00,
2013-01-28 12:37:00,66.1,44.2,29.67,South,189,16.0,22.0,45,0.00,,---,0.00,VWS V14.01,2013-01-28 18:37:00,
2013-01-28 12:41:00,66.6,43.4,29.67,SSW,192,21.0,24.0,43,0.00,,---,0.00,VWS V14.01,2013-01-28 18:41:00,
2013-01-28 12:42:00,66.6,43.4,29.67,SSW,194,17.0,18.0,43,0.00,,---,0.00,VWS V14.01,2013-01-28 18:42:00,
2013-01-28 12:46:00,67.1,43.9,29.66,SSW,192,13.0,23.0,43,0.00,,---,0.00,VWS V14.01,2013-01-28 18:46:00,
2013-01-28 12:47:00,67.1,43.9,29.66,South,186,19.0,23.0,43,0.00,,---,0.00,VWS V14.01,2013-01-28 18:47:00,
2013-01-28 12:51:00,67.4,43.5,29.66,South,180,7.0,7.0,42,0.00,,---,0.00,VWS V14.01,2013-01-28 18:51:00,
2013-01-28 12:52:00,67.8,44.5,29.66,South,180,13.0,23.0,43,0.00,,---,0.00,VWS V14.01,2013-01-28 18:52:00,
2013-01-28 12:56:00,68.1,42.9,29.66,SSW,202,22.0,25.0,40,0.00,,---,0.00,VWS V14.01,2013-01-28 18:56:00,
2013-01-28 12:57:00,68.1,42.9,29.66,SSW,205,21.0,25.0,40,0.00,,---,0.00,VWS V14.01,2013-01-28 18:57:00,
2013-01-28 12:58:00,68.1,42.9,29.66,SSW,204,19.0,25.0,40,0.00,,---,0.00,VWS V14.01,2013-01-28 18:58:00,
2013-01-28 13:01:00,68.4,43.8,29.65,SSW,197,16.0,17.0,41,0.00,,---,0.00,VWS V14.01,2013-01-28 19:01:00,
2013-01-28 13:02:00,68.6,44.0,29.65,South,183,19.0,23.0,41,0.00,,---,0.00,VWS V14.01,2013-01-28 19:02:00,
2013-01-28 13:03:00,68.6,44.0,29.65,SSW,192,12.0,23.0,41,0.00,,---,0.00,VWS V14.01,2013-01-28 19:03:00,
2013-01-28 13:06:00,68.8,42.9,29.65,South,187,21.0,26.0,39,0.00,,---,0.00,VWS V14.01,2013-01-28 19:06:00,
2013-01-28 13:07:00,68.6,43.3,29.65,SSW,192,21.0,26.0,40,0.00,,---,0.00,VWS V14.01,2013-01-28 19:07:00,
2013-01-28 13:08:00,68.6,43.3,29.65,SSW,208,16.0,26.0,40,0.00,,---,0.00,VWS V14.01,2013-01-28 19:08:00,
2013-01-28 13:11:00,68.6,43.3,29.65,SSW,207,21.0,21.0,40,0.00,,---,0.00,VWS V14.01,2013-01-28 19:11:00,
2013-01-28 13:12:00,68.6,43.3,29.65,SSW,204,23.0,24.0,40,0.00,,---,0.00,VWS V14.01,2013-01-28 19:12:00,
2013-01-28 13:13:00,68.6,43.3,29.65,SSW,203,21.0,24.0,40,0.00,,---,0.00,VWS V14.01,2013-01-28 19:13:00,
2013-01-28 13:16:00,68.6,44.0,29.64,South,169,13.0,24.0,41,0.00,,---,0.00,VWS V14.01,2013-01-28 19:16:00,
2013-01-28 13:17:00,68.8,44.2,29.64,South,182,17.0,27.0,41,0.00,,---,0.00,VWS V14.01,2013-01-28 19:17:00,
2013-01-28 13:18:00,68.8,43.5,29.64,South,184,15.0,27.0,40,0.00,,---,0.00,VWS V14.01,2013-01-28 19:18:00,
2013-01-28 13:21:00,69.4,42.7,29.64,South,186,19.0,21.0,38,0.00,,---,0.00,VWS V14.01,2013-01-28 19:21:00,
2013-01-28 13:23:00,69.6,43.6,29.64,SSW,200,21.0,25.0,39,0.00,,---,0.00,VWS V14.01,2013-01-28 19:23:00,
2013-01-28 13:27:00,69.8,42.4,29.64,SSW,195,25.0,27.0,37,0.00,,---,0.00,VWS V14.01,2013-01-28 19:27:00,
2013-01-28 13:28:00,69.8,42.4,29.64,South,191,16.0,27.0,37,0.00,,---,0.00,VWS V14.01,2013-01-28 19:28:00,
2013-01-28 13:32:00,70.1,41.9,29.63,South,187,20.0,23.0,36,0.00,,---,0.00,VWS V14.01,2013-01-28 19:32:00,
2013-01-28 13:33:00,70.1,42.7,29.63,SSW,198,22.0,26.0,37,0.00,,---,0.00,VWS V14.01,2013-01-28 19:33:00,
2013-01-28 13:34:00,70.1,42.7,29.63,South,188,22.0,26.0,37,0.00,,---,0.00,VWS V14.01,2013-01-28 19:34:00,
2013-01-28 13:37:00,70.1,42.7,29.63,SSW,197,20.0,26.0,37,0.00,,---,0.00,VWS V14.01,2013-01-28 19:37:00,
2013-01-28 13:38:00,70.3,42.1,29.63,SSW,205,21.0,26.0,36,0.00,,---,0.00,VWS V14.01,2013-01-28 19:38:00,
2013-01-28 13:39:00,70.3,42.1,29.63,SSW,202,20.0,26.0,36,0.00,,---,0.00,VWS V14.01,2013-01-28 19:39:00,
2013-01-28 13:42:00,70.4,42.9,29.63,South,171,16.0,20.0,37,0.00,,---,0.00,VWS V14.01,2013-01-28 19:42:00,
2013-01-28 13:43:00,70.4,42.9,29.63,South,184,19.0,21.0,37,0.00,,---,0.00,VWS V14.01,2013-01-28 19:43:00,
2013-01-28 13:44:00,70.4,42.9,29.63,South,184,21.0,21.0,37,0.00,,---,0.00,VWS V14.01,2013-01-28 19:44:00,
2013-01-28 13:47:00,70.4,42.9,29.62,South,184,19.0,27.0,37,0.00,,---,0.00,VWS V14.01,2013-01-28 19:47:00,
2013-01-28 13:48:00,70.4,42.9,29.62,South,182,23.0,27.0,37,0.00,,---,0.00,VWS V14.01,2013-01-28 19:48:00,
2013-01-28 13:49:00,70.3,42.8,29.62,SSW,197,26.0,27.0,37,0.00,,---,0.00,VWS V14.01,2013-01-28 19:49:00,
2013-01-28 13:52:00,70.1,41.9,29.62,SSW,193,22.0,28.0,36,0.00,,---,0.00,VWS V14.01,2013-01-28 19:52:00,
2013-01-28 13:54:00,70.1,41.9,29.62,SSW,192,20.0,28.0,36,0.00,,---,0.00,VWS V14.01,2013-01-28 19:54:00,
2013-01-28 13:57:00,70.6,42.4,29.62,SSW,200,19.0,28.0,36,0.00,,---,0.00,VWS V14.01,2013-01-28 19:57:00,
2013-01-28 13:59:00,70.8,43.3,29.62,South,169,18.0,28.0,37,0.00,,---,0.00,VWS V14.01,2013-01-28 19:59:00,
2013-01-28 14:00:00,70.8,43.3,29.62,South,175,14.0,28.0,37,0.00,,---,0.00,VWS V14.01,2013-01-28 20:00:00,
2013-01-28 14:02:00,70.6,43.1,29.62,SSE,162,17.0,21.0,37,0.00,,---,0.00,VWS V14.01,2013-01-28 20:02:00,
2013-01-28 14:04:00,70.6,43.1,29.62,South,178,16.0,23.0,37,0.00,,---,0.00,VWS V14.01,2013-01-28 20:04:00,
2013-01-28 14:05:00,70.6,43.1,29.62,South,184,14.0,23.0,37,0.00,,---,0.00,VWS V14.01,2013-01-28 20:05:00,
2013-01-28 14:07:00,70.8,42.5,29.62,South,173,17.0,23.0,36,0.00,,---,0.00,VWS V14.01,2013-01-28 20:07:00,
2013-01-28 14:09:00,70.8,42.5,29.62,SSW,193,15.0,24.0,36,0.00,,---,0.00,VWS V14.01,2013-01-28 20:09:00,
2013-01-28 14:10:00,70.8,42.5,29.62,SSW,199,19.0,24.0,36,0.00,,---,0.00,VWS V14.01,2013-01-28 20:10:00,
2013-01-28 14:13:00,71.1,42.8,29.62,South,182,15.0,23.0,36,0.00,,---,0.00,VWS V14.01,2013-01-28 20:13:00,
2013-01-28 14:14:00,71.1,42.8,29.62,SSW,200,18.0,23.0,36,0.00,,---,0.00,VWS V14.01,2013-01-28 20:14:00,
2013-01-28 14:15:00,71.1,42.1,29.62,South,186,14.0,23.0,35,0.00,,---,0.00,VWS V14.01,2013-01-28 20:15:00,
2013-01-28 14:18:00,71.3,43.0,29.62,SSW,198,19.0,24.0,36,0.00,,---,0.00,VWS V14.01,2013-01-28 20:18:00,
2013-01-28 14:19:00,71.5,42.4,29.62,South,184,22.0,24.0,35,0.00,,---,0.00,VWS V14.01,2013-01-28 20:19:00,
2013-01-28 14:20:00,71.5,42.4,29.62,SSW,196,23.0,27.0,35,0.00,,---,0.00,VWS V14.01,2013-01-28 20:20:00,
2013-01-28 14:23:00,71.3,42.3,29.62,South,184,20.0,28.0,35,0.00,,---,0.00,VWS V14.01,2013-01-28 20:23:00,
2013-01-28 14:24:00,71.3,42.3,29.62,SSW,193,19.0,28.0,35,0.00,,---,0.00,VWS V14.01,2013-01-28 20:24:00,
2013-01-28 14:25:00,71.3,42.3,29.62,SSW,203,25.0,28.0,35,0.00,,---,0.00,VWS V14.01,2013-01-28 20:25:00,
2013-01-28 14:26:00,71.3,41.5,29.62,SSW,193,20.0,28.0,34,0.00,,---,0.00,VWS V14.01,2013-01-28 20:26:00,
2013-01-28 14:28:00,71.6,42.5,29.62,South,182,20.0,28.0,35,0.00,,---,0.00,VWS V14.01,2013-01-28 20:28:00,
2013-01-28 14:29:00,71.5,41.7,29.62,South,182,19.0,28.0,34,0.00,,---,0.00,VWS V14.01,2013-01-28 20:29:00,
2013-01-28 14:30:00,71.5,41.7,29.61,SSW,194,21.0,28.0,34,0.00,,---,0.00,VWS V14.01,2013-01-28 20:30:00,
2013-01-28 14:31:00,71.5,41.7,29.61,South,184,20.0,28.0,34,0.00,,---,0.00,VWS V14.01,2013-01-28 20:31:00,
2013-01-28 14:33:00,71.3,41.5,29.61,SSW,196,20.0,31.0,34,0.00,,---,0.00,VWS V14.01,2013-01-28 20:33:00,
2013-01-28 14:34:00,71.1,42.1,29.61,SSW,192,27.0,31.0,35,0.00,,---,0.00,VWS V14.01,2013-01-28 20:34:00,
2013-01-28 14:35:00,71.1,41.3,29.61,South,189,24.0,31.0,34,0.00,,---,0.00,VWS V14.01,2013-01-28 20:35:00,
2013-01-28 14:36:00,71.1,41.3,29.61,SSW,192,24.0,31.0,34,0.00,,---,0.00,VWS V14.01,2013-01-28 20:36:00,
2013-01-28 14:38:00,71.3,42.3,29.61,SSW,196,23.0,31.0,35,0.00,,---,0.00,VWS V14.01,2013-01-28 20:38:00,
2013-01-28 14:39:00,71.3,41.5,29.61,South,191,21.0,31.0,34,0.00,,---,0.00,VWS V14.01,2013-01-28 20:39:00,
2013-01-28 14:41:00,71.5,42.4,29.61,South,182,14.0,31.0,35,0.00,,---,0.00,VWS V14.01,2013-01-28 20:41:00,
2013-01-28 14:43:00,71.6,42.5,29.61,South,185,17.0,24.0,35,0.00,,---,0.00,VWS V14.01,2013-01-28 20:43:00,
2013-01-28 14:44:00,71.6,42.5,29.61,South,189,17.0,24.0,35,0.00,,---,0.00,VWS V14.01,2013-01-28 20:44:00,
2013-01-28 14:46:00,71.8,42.7,29.61,South,177,19.0,25.0,35,0.00,,---,0.00,VWS V14.01,2013-01-28 20:46:00,
2013-01-28 14:48:00,72.0,42.9,29.61,South,185,19.0,25.0,35,0.00,,---,0.00,VWS V14.01,2013-01-28 20:48:00,
2013-01-28 14:49:00,71.8,42.7,29.61,South,185,21.0,30.0,35,0.00,,---,0.00,VWS V14.01,2013-01-28 20:49:00,
2013-01-28 14:51:00,71.6,42.5,29.61,South,186,28.0,28.0,35,0.00,,---,0.00,VWS V14.01,2013-01-28 20:51:00,
2013-01-28 14:54:00,71.6,43.3,29.61,South,188,19.0,34.0,36,0.00,,---,0.00,VWS V14.01,2013-01-28 20:54:00,
2013-01-28 14:55:00,71.6,42.5,29.61,South,184,25.0,34.0,35,0.00,,---,0.00,VWS V14.01,2013-01-28 20:55:00,
2013-01-28 14:56:00,71.6,42.5,29.61,South,189,24.0,34.0,35,0.00,,---,0.00,VWS V14.01,2013-01-28 20:56:00,
2013-01-28 14:59:00,71.6,42.5,29.61,SSW,194,21.0,34.0,35,0.00,,---,0.00,VWS V14.01,2013-01-28 20:59:00,
2013-01-28 15:00:00,71.8,42.7,29.60,South,189,22.0,34.0,35,0.00,,---,0.00,VWS V14.01,2013-01-28 21:00:00,
2013-01-28 15:01:00,71.8,42.0,29.60,South,184,25.0,28.0,34,0.00,,---,0.00,VWS V14.01,2013-01-28 21:01:00,
2013-01-28 15:04:00,71.8,41.2,29.60,South,190,23.0,33.0,33,0.00,,---,0.00,VWS V14.01,2013-01-28 21:04:00,
2013-01-28 15:05:00,71.8,40.4,29.60,South,189,26.0,34.0,32,0.00,,---,0.00,VWS V14.01,2013-01-28 21:05:00,
2013-01-28 15:07:00,71.8,40.4,29.60,South,185,20.0,34.0,32,0.00,,---,0.00,VWS V14.01,2013-01-28 21:07:00,
2013-01-28 15:09:00,72.0,41.3,29.60,SSW,194,22.0,34.0,33,0.00,,---,0.00,VWS V14.01,2013-01-28 21:09:00,
2013-01-28 15:10:00,72.0,41.3,29.60,South,183,14.0,34.0,33,0.00,,---,0.00,VWS V14.01,2013-01-28 21:10:00,
2013-01-28 15:12:00,72.0,41.3,29.60,South,186,22.0,27.0,33,0.00,,---,0.00,VWS V14.01,2013-01-28 21:12:00,
2013-01-28 15:14:00,72.0,41.3,29.60,SSW,197,21.0,28.0,33,0.00,,---,0.00,VWS V14.01,2013-01-28 21:14:00,
2013-01-28 15:15:00,72.1,42.2,29.60,SSW,204,18.0,28.0,34,0.00,,---,0.00,VWS V14.01,2013-01-28 21:15:00,
2013-01-28 15:17:00,72.1,42.2,29.60,SSW,208,20.0,28.0,34,0.00,,---,0.00,VWS V14.01,2013-01-28 21:17:00,
2013-01-28 15:20:00,72.1,42.2,29.60,SSW,194,17.0,29.0,34,0.00,,---,0.00,VWS V14.01,2013-01-28 21:20:00,
2013-01-28 15:22:00,72.3,42.4,29.60,South,180,17.0,26.0,34,0.00,,---,0.00,VWS V14.01,2013-01-28 21:22:00,
2013-01-28 15:25:00,72.7,42.7,29.60,SSW,196,19.0,26.0,34,0.00,,---,0.00,VWS V14.01,2013-01-28 21:25:00,
2013-01-28 15:27:00,72.7,42.7,29.60,SSW,197,21.0,29.0,34,0.00,,---,0.00,VWS V14.01,2013-01-28 21:27:00,
2013-01-28 15:28:00,72.7,42.7,29.60,South,183,26.0,29.0,34,0.00,,---,0.00,VWS V14.01,2013-01-28 21:28:00,
2013-01-28 15:30:00,72.7,42.7,29.59,South,190,18.0,29.0,34,0.00,,---,0.00,VWS V14.01,2013-01-28 21:30:00,
2013-01-28 15:31:00,72.7,42.7,29.59,SSW,201,23.0,29.0,34,0.00,,---,0.00,VWS V14.01,2013-01-28 21:31:00,
2013-01-28 15:32:00,72.7,42.7,29.59,South,184,23.0,29.0,34,0.00,,---,0.00,VWS V14.01,2013-01-28 21:32:00,
2013-01-28 15:33:00,72.7,42.0,29.59,South,186,25.0,29.0,33,0.00,,---,0.00,VWS V14.01,2013-01-28 21:33:00,
2013-01-28 15:35:00,72.8,42.8,29.59,South,189,23.0,31.0,34,0.00,,---,0.00,VWS V14.01,2013-01-28 21:35:00,
2013-01-28 15:36:00,72.8,42.0,29.59,South,169,17.0,31.0,33,0.00,,---,0.00,VWS V14.01,2013-01-28 21:36:00,
2013-01-28 15:37:00,73.0,42.2,29.59,SSE,165,16.0,31.0,33,0.00,,---,0.00,VWS V14.01,2013-01-28 21:37:00,
2013-01-28 15:38:00,73.0,42.2,29.59,SSW,194,26.0,31.0,33,0.00,,---,0.00,VWS V14.01,2013-01-28 21:38:00,
2013-01-28 15:40:00,73.0,41.4,29.59,South,182,28.0,31.0,32,0.00,,---,0.00,VWS V14.01,2013-01-28 21:40:00,
2013-01-28 15:41:00,73.0,41.4,29.59,South,182,20.0,29.0,32,0.00,,---,0.00,VWS V14.01,2013-01-28 21:41:00,
2013-01-28 15:42:00,73.0,42.2,29.59,South,172,18.0,33.0,33,0.00,,---,0.00,VWS V14.01,2013-01-28 21:42:00,
2013-01-28 15:43:00,73.0,42.2,29.59,South,176,20.0,33.0,33,0.00,,---,0.00,VWS V14.01,2013-01-28 21:43:00,
2013-01-28 15:45:00,72.8,41.3,29.58,South,189,17.0,33.0,32,0.00,,---,0.00,VWS V14.01,2013-01-28 21:45:00,
2013-01-28 15:46:00,72.8,42.0,29.58,South,186,16.0,33.0,33,0.00,,---,0.00,VWS V14.01,2013-01-28 21:46:00,
2013-01-28 15:48:00,72.8,42.0,29.58,South,184,22.0,33.0,33,0.00,,---,0.00,VWS V14.01,2013-01-28 21:48:00,
2013-01-28 15:51:00,72.7,42.0,29.58,South,180,20.0,22.0,33,0.00,,---,0.00,VWS V14.01,2013-01-28 21:51:00,
2013-01-28 15:53:00,72.8,41.3,29.58,SSW,192,21.0,33.0,32,0.00,,---,0.00,VWS V14.01,2013-01-28 21:53:00,
2013-01-28 15:56:00,72.8,41.3,29.58,SSW,200,23.0,35.0,32,0.00,,---,0.00,VWS V14.01,2013-01-28 21:56:00,
2013-01-28 15:58:00,72.8,41.3,29.58,South,187,28.0,35.0,32,0.00,,---,0.00,VWS V14.01,2013-01-28 21:58:00,
2013-01-28 16:01:00,72.8,42.0,29.58,SSW,196,24.0,25.0,33,0.00,,---,0.00,VWS V14.01,2013-01-28 22:01:00,
2013-01-28 16:03:00,72.8,42.0,29.58,South,191,18.0,27.0,33,0.00,,---,0.00,VWS V14.01,2013-01-28 22:03:00,
2013-01-28 16:06:00,72.8,42.8,29.58,SSE,167,18.0,27.0,34,0.00,,---,0.00,VWS V14.01,2013-01-28 22:06:00,
2013-01-28 16:08:00,72.8,42.8,29.58,South,179,12.0,27.0,34,0.00,,---,0.00,VWS V14.01,2013-01-28 22:08:00,
2013-01-28 16:11:00,72.5,45.5,29.58,South,190,14.0,24.0,38,0.00,,---,0.00,VWS V14.01,2013-01-28 22:11:00,
2013-01-28 16:12:00,72.5,45.5,29.58,South,178,18.0,24.0,38,0.00,,---,0.00,VWS V14.01,2013-01-28 22:12:00,
2013-01-28 16:13:00,72.5,46.8,29.58,South,182,23.0,29.0,40,0.00,,---,0.00,VWS V14.01,2013-01-28 22:13:00,
2013-01-28 16:17:00,72.3,47.3,29.57,South,188,25.0,29.0,41,0.00,,---,0.00,VWS V14.01,2013-01-28 22:17:00,
2013-01-28 16:18:00,72.3,48.6,29.57,South,177,15.0,30.0,43,0.00,,---,0.00,VWS V14.01,2013-01-28 22:18:00,
2013-01-28 16:19:00,72.3,48.6,29.57,South,172,15.0,30.0,43,0.00,,---,0.00,VWS V14.01,2013-01-28 22:19:00,
2013-01-28 16:22:00,72.1,49.6,29.57,South,188,15.0,27.0,45,0.00,,---,0.00,VWS V14.01,2013-01-28 22:22:00,
2013-01-28 16:23:00,72.1,50.2,29.57,South,188,22.0,31.0,46,0.00,,---,0.00,VWS V14.01,2013-01-28 22:23:00,
2013-01-28 16:24:00,72.1,50.2,29.57,SSW,204,14.0,31.0,46,0.00,,---,0.00,VWS V14.01,2013-01-28 22:24:00,
2013-01-28 16:27:00,72.0,51.8,29.57,South,181,18.0,32.0,49,0.00,,---,0.00,VWS V14.01,2013-01-28 22:27:00,
2013-01-28 16:28:00,72.0,52.9,29.57,South,184,21.0,32.0,51,0.00,,---,0.00,VWS V14.01,2013-01-28 22:28:00,
2013-01-28 16:29:00,72.0,52.9,29.57,South,190,21.0,32.0,51,0.00,,---,0.00,VWS V14.01,2013-01-28 22:29:00,
2013-01-28 16:32:00,71.6,53.1,29.57,South,178,15.0,23.0,52,0.00,,---,0.00,VWS V14.01,2013-01-28 22:32:00,
2013-01-28 16:33:00,71.6,53.6,29.57,SSE,167,14.0,23.0,53,0.00,,---,0.00,VWS V14.01,2013-01-28 22:33:00,
2013-01-28 16:34:00,71.6,53.6,29.57,South,190,21.0,23.0,53,0.00,,---,0.00,VWS V14.01,2013-01-28 22:34:00,
2013-01-28 16:37:00,71.5,54.0,29.57,SSE,157,16.0,25.0,54,0.00,,---,0.00,VWS V14.01,2013-01-28 22:37:00,
2013-01-28 16:38:00,71.3,53.8,29.57,South,171,13.0,25.0,54,0.00,,---,0.00,VWS V14.01,2013-01-28 22:38:00,
2013-01-28 16:39:00,71.3,53.8,29.57,South,183,12.0,25.0,54,0.00,,---,0.00,VWS V14.01,2013-01-28 22:39:00,
2013-01-28 16:42:00,71.3,54.8,29.57,SSE,163,14.0,26.0,56,0.00,,---,0.00,VWS V14.01,2013-01-28 22:42:00,
2013-01-28 16:44:00,71.1,54.6,29.57,South,170,14.0,26.0,56,0.00,,---,0.00,VWS V14.01,2013-01-28 22:44:00,
2013-01-28 16:45:00,71.1,55.1,29.56,South,172,7.0,26.0,57,0.00,,---,0.00,VWS V14.01,2013-01-28 22:45:00,
2013-01-28 16:47:00,71.1,55.1,29.56,South,169,15.0,26.0,57,0.00,,---,0.00,VWS V14.01,2013-01-28 22:47:00,
2013-01-28 16:48:00,71.1,55.1,29.56,South,173,11.0,26.0,57,0.00,,---,0.00,VWS V14.01,2013-01-28 22:48:00,
2013-01-28 16:49:00,71.1,55.1,29.56,South,184,16.0,26.0,57,0.00,,---,0.00,VWS V14.01,2013-01-28 22:49:00,
2013-01-28 16:50:00,70.9,54.9,29.56,South,178,10.0,26.0,57,0.00,,---,0.00,VWS V14.01,2013-01-28 22:50:00,
2013-01-28 16:52:00,70.9,55.4,29.56,South,182,18.0,19.0,58,0.00,,---,0.00,VWS V14.01,2013-01-28 22:52:00,
2013-01-28 16:53:00,70.9,55.4,29.56,South,178,17.0,22.0,58,0.00,,---,0.00,VWS V14.01,2013-01-28 22:53:00,
2013-01-28 16:54:00,70.9,55.4,29.56,South,182,12.0,24.0,58,0.00,,---,0.00,VWS V14.01,2013-01-28 22:54:00,
2013-01-28 16:55:00,70.9,55.4,29.56,SSE,167,10.0,24.0,58,0.00,,---,0.00,VWS V14.01,2013-01-28 22:55:00,
2013-01-28 16:58:00,70.8,55.3,29.56,South,184,22.0,24.0,58,0.00,,---,0.00,VWS V14.01,2013-01-28 22:58:00,
2013-01-28 16:59:00,70.9,55.4,29.56,South,182,7.0,24.0,58,0.00,,---,0.00,VWS V14.01,2013-01-28 22:59:00,
2013-01-28 17:01:00,70.9,55.4,29.55,South,184,20.0,24.0,58,0.00,,---,0.00,VWS V14.01,2013-01-28 23:01:00,
2013-01-28 17:03:00,70.8,55.3,29.55,South,174,15.0,22.0,58,0.00,,---,0.00,VWS V14.01,2013-01-28 23:03:00,
2013-01-28 17:04:00,70.8,55.3,29.55,South,178,15.0,22.0,58,0.00,,---,0.00,VWS V14.01,2013-01-28 23:04:00,
2013-01-28 17:05:00,70.8,55.3,29.55,South,180,11.0,22.0,58,0.00,,---,0.00,VWS V14.01,2013-01-28 23:05:00,
2013-01-28 17:06:00,70.8,55.3,29.55,South,182,14.0,22.0,58,0.00,,---,0.00,VWS V14.01,2013-01-28 23:06:00,
2013-01-28 17:08:00,70.8,55.3,29.55,South,173,10.0,22.0,58,0.00,,---,0.00,VWS V14.01,2013-01-28 23:08:00,
2013-01-28 17:09:00,70.6,55.1,29.55,South,169,12.0,22.0,58,0.00,,---,0.00,VWS V14.01,2013-01-28 23:09:00,
2013-01-28 17:10:00,70.6,55.1,29.55,South,171,11.0,22.0,58,0.00,,---,0.00,VWS V14.01,2013-01-28 23:10:00,
2013-01-28 17:11:00,70.6,55.1,29.55,South,190,15.0,19.0,58,0.00,,---,0.00,VWS V14.01,2013-01-28 23:11:00,
2013-01-28 17:13:00,70.6,55.1,29.55,South,180,14.0,19.0,58,0.00,,---,0.00,VWS V14.01,2013-01-28 23:13:00,
2013-01-28 17:14:00,70.6,55.1,29.55,South,173,13.0,19.0,58,0.00,,---,0.00,VWS V14.01,2013-01-28 23:14:00,
2013-01-28 17:15:00,70.6,55.1,29.55,South,182,14.0,19.0,58,0.00,,---,0.00,VWS V14.01,2013-01-28 23:15:00,
2013-01-28 17:16:00,70.6,55.1,29.55,South,179,13.0,19.0,58,0.00,,---,0.00,VWS V14.01,2013-01-28 23:16:00,
2013-01-28 17:18:00,70.6,55.1,29.55,South,186,12.0,19.0,58,0.00,,---,0.00,VWS V14.01,2013-01-28 23:18:00,
2013-01-28 17:19:00,70.6,55.1,29.55,South,184,16.0,19.0,58,0.00,,---,0.00,VWS V14.01,2013-01-28 23:19:00,
2013-01-28 17:20:00,70.6,55.1,29.55,South,179,13.0,19.0,58,0.00,,---,0.00,VWS V14.01,2013-01-28 23:20:00,
2013-01-28 17:21:00,70.6,55.1,29.55,South,178,15.0,23.0,58,0.00,,---,0.00,VWS V14.01,2013-01-28 23:21:00,
2013-01-28 17:24:00,70.6,55.1,29.55,South,179,17.0,25.0,58,0.00,,---,0.00,VWS V14.01,2013-01-28 23:24:00,
2013-01-28 17:25:00,70.8,55.3,29.55,South,183,17.0,25.0,58,0.00,,---,0.00,VWS V14.01,2013-01-28 23:25:00,
2013-01-28 17:26:00,70.8,53.3,29.55,South,174,16.0,26.0,54,0.00,,---,0.00,VWS V14.01,2013-01-28 23:26:00,
2013-01-28 17:29:00,70.6,55.1,29.55,South,177,17.0,26.0,58,0.00,,---,0.00,VWS V14.01,2013-01-28 23:29:00,
2013-01-28 17:30:00,70.6,55.1,29.55,South,176,18.0,26.0,58,0.00,,---,0.00,VWS V14.01,2013-01-28 23:30:00,
2013-01-28 17:31:00,70.8,55.3,29.55,South,187,17.0,23.0,58,0.00,,---,0.00,VWS V14.01,2013-01-28 23:31:00,
2013-01-28 17:34:00,70.6,55.1,29.55,South,169,18.0,27.0,58,0.00,,---,0.00,VWS V14.01,2013-01-28 23:34:00,
2013-01-28 17:35:00,70.6,55.6,29.55,South,176,20.0,27.0,59,0.00,,---,0.00,VWS V14.01,2013-01-28 23:35:00,
2013-01-28 17:37:00,70.6,55.6,29.55,South,182,16.0,27.0,59,0.00,,---,0.00,VWS V14.01,2013-01-28 23:37:00,
2013-01-28 17:39:00,70.4,55.4,29.55,South,173,12.0,27.0,59,0.00,,---,0.00,VWS V14.01,2013-01-28 23:39:00,
2013-01-28 17:40:00,70.3,55.3,29.55,South,177,10.0,27.0,59,0.00,,---,0.00,VWS V14.01,2013-01-28 23:40:00,
2013-01-28 17:42:00,70.3,55.3,29.55,South,177,10.0,16.0,59,0.00,,---,0.00,VWS V14.01,2013-01-28 23:42:00,
2013-01-28 17:44:00,69.9,55.4,29.55,South,175,11.0,18.0,60,0.00,,---,0.00,VWS V14.01,2013-01-28 23:44:00,
2013-01-28 17:45:00,69.9,55.4,29.55,South,171,10.0,18.0,60,0.00,,---,0.00,VWS V14.01,2013-01-28 23:45:00,
2013-01-28 17:47:00,69.9,55.4,29.55,South,181,16.0,19.0,60,0.00,,---,0.00,VWS V14.01,2013-01-28 23:47:00,
2013-01-28 17:49:00,69.8,55.3,29.55,SSE,159,19.0,21.0,60,0.00,,---,0.00,VWS V14.01,2013-01-28 23:49:00,
2013-01-28 17:50:00,69.8,55.3,29.55,South,169,13.0,21.0,60,0.00,,---,0.00,VWS V14.01,2013-01-28 23:50:00,
2013-01-28 17:53:00,69.8,55.3,29.55,South,180,10.0,19.0,60,0.00,,---,0.00,VWS V14.01,2013-01-28 23:53:00,
2013-01-28 17:54:00,69.6,55.1,29.55,South,174,18.0,28.0,60,0.00,,---,0.00,VWS V14.01,2013-01-28 23:54:00,
2013-01-28 17:55:00,69.6,55.6,29.55,SSE,166,15.0,28.0,61,0.00,,---,0.00,VWS V14.01,2013-01-28 23:55:00,
2013-01-28 17:56:00,69.6,55.6,29.55,South,182,14.0,28.0,61,0.00,,---,0.00,VWS V14.01,2013-01-28 23:56:00,
2013-01-28 17:58:00,69.6,55.6,29.55,SSE,164,11.0,28.0,61,0.00,,---,0.00,VWS V14.01,2013-01-28 23:58:00,
2013-01-28 18:00:00,69.6,55.6,29.55,South,180,17.0,28.0,61,0.00,,---,0.00,VWS V14.01,2013-01-29 00:00:00,
2013-01-28 18:01:00,69.6,55.6,29.56,South,171,15.0,19.0,61,0.00,,---,0.00,VWS V14.01,2013-01-29 00:01:00,
2013-01-28 18:03:00,69.4,55.8,29.56,South,180,15.0,26.0,62,0.00,,---,0.00,VWS V14.01,2013-01-29 00:03:00,
2013-01-28 18:05:00,69.4,55.8,29.56,South,190,21.0,31.0,62,0.00,,---,0.00,VWS V14.01,2013-01-29 00:05:00,
2013-01-28 18:06:00,69.4,55.8,29.56,South,180,15.0,31.0,62,0.00,,---,0.00,VWS V14.01,2013-01-29 00:06:00,
2013-01-28 18:09:00,69.4,55.8,29.56,South,178,17.0,31.0,62,0.00,,---,0.00,VWS V14.01,2013-01-29 00:09:00,
2013-01-28 18:10:00,69.3,55.7,29.56,South,179,12.0,31.0,62,0.00,,---,0.00,VWS V14.01,2013-01-29 00:10:00,
2013-01-28 18:11:00,69.3,55.7,29.56,South,169,10.0,19.0,62,0.00,,---,0.00,VWS V14.01,2013-01-29 00:11:00,
2013-01-28 18:14:00,69.3,55.7,29.56,South,189,14.0,21.0,62,0.00,,---,0.00,VWS V14.01,2013-01-29 00:14:00,
2013-01-28 18:15:00,69.3,55.7,29.56,South,180,11.0,21.0,62,0.00,,---,0.00,VWS V14.01,2013-01-29 00:15:00,
2013-01-28 18:17:00,69.1,56.0,29.56,South,188,18.0,22.0,63,0.00,,---,0.00,VWS V14.01,2013-01-29 00:17:00,
2013-01-28 18:20:00,69.1,56.0,29.56,South,184,18.0,24.0,63,0.00,,---,0.00,VWS V14.01,2013-01-29 00:20:00,
2013-01-28 18:21:00,69.1,56.0,29.56,South,180,10.0,24.0,63,0.00,,---,0.00,VWS V14.01,2013-01-29 00:21:00,
2013-01-28 18:22:00,69.1,56.0,29.56,South,175,12.0,24.0,63,0.00,,---,0.00,VWS V14.01,2013-01-29 00:22:00,
2013-01-28 18:25:00,68.9,55.8,29.56,South,172,11.0,24.0,63,0.00,,---,0.00,VWS V14.01,2013-01-29 00:25:00,
2013-01-28 18:26:00,68.9,56.2,29.56,South,187,19.0,24.0,64,0.00,,---,0.00,VWS V14.01,2013-01-29 00:26:00,
2013-01-28 18:27:00,68.8,56.1,29.56,South,185,13.0,24.0,64,0.00,,---,0.00,VWS V14.01,2013-01-29 00:27:00,
2013-01-28 18:30:00,68.6,56.0,29.56,South,170,11.0,24.0,64,0.00,,---,0.00,VWS V14.01,2013-01-29 00:30:00,
2013-01-28 18:31:00,68.6,56.0,29.56,South,181,14.0,24.0,64,0.00,,---,0.00,VWS V14.01,2013-01-29 00:31:00,
2013-01-28 18:32:00,68.6,56.0,29.56,South,176,15.0,19.0,64,0.00,,---,0.00,VWS V14.01,2013-01-29 00:32:00,
2013-01-28 18:35:00,68.4,55.8,29.56,South,176,6.0,22.0,64,0.00,,---,0.00,VWS V14.01,2013-01-29 00:35:00,
2013-01-28 18:36:00,68.4,55.8,29.56,South,176,11.0,22.0,64,0.00,,---,0.00,VWS V14.01,2013-01-29 00:36:00,
2013-01-28 18:37:00,68.4,56.2,29.56,South,176,14.0,22.0,65,0.00,,---,0.00,VWS V14.01,2013-01-29 00:37:00,
2013-01-28 18:40:00,68.4,56.2,29.56,South,173,12.0,22.0,65,0.00,,---,0.00,VWS V14.01,2013-01-29 00:40:00,
2013-01-28 18:41:00,68.4,56.2,29.56,South,169,11.0,22.0,65,0.00,,---,0.00,VWS V14.01,2013-01-29 00:41:00,
2013-01-28 18:42:00,68.3,56.1,29.56,South,169,9.0,15.0,65,0.00,,---,0.00,VWS V14.01,2013-01-29 00:42:00,
2013-01-28 18:45:00,68.3,56.1,29.56,South,176,16.0,22.0,65,0.00,,---,0.00,VWS V14.01,2013-01-29 00:45:00,
2013-01-28 18:46:00,68.3,56.1,29.56,South,170,12.0,22.0,65,0.00,,---,0.00,VWS V14.01,2013-01-29 00:46:00,
2013-01-28 18:47:00,68.3,56.1,29.56,South,187,16.0,22.0,65,0.00,,---,0.00,VWS V14.01,2013-01-29 00:47:00,
2013-01-28 18:50:00,68.1,55.9,29.56,South,177,13.0,22.0,65,0.00,,---,0.00,VWS V14.01,2013-01-29 00:50:00,
2013-01-28 18:51:00,68.1,56.3,29.56,South,171,7.0,14.0,66,0.00,,---,0.00,VWS V14.01,2013-01-29 00:51:00,
2013-01-28 18:52:00,68.1,56.3,29.56,South,178,10.0,18.0,66,0.00,,---,0.00,VWS V14.01,2013-01-29 00:52:00,
2013-01-28 18:53:00,68.3,56.5,29.56,South,176,16.0,18.0,66,0.00,,---,0.00,VWS V14.01,2013-01-29 00:53:00,
2013-01-28 18:55:00,68.3,56.5,29.56,South,173,12.0,27.0,66,0.00,,---,0.00,VWS V14.01,2013-01-29 00:55:00,
2013-01-28 18:56:00,68.3,56.5,29.56,South,178,14.0,27.0,66,0.00,,---,0.00,VWS V14.01,2013-01-29 00:56:00,
2013-01-28 18:57:00,68.3,56.5,29.56,South,179,17.0,27.0,66,0.00,,---,0.00,VWS V14.01,2013-01-29 00:57:00,
2013-01-28 18:58:00,68.3,56.5,29.56,South,175,13.0,27.0,66,0.00,,---,0.00,VWS V14.01,2013-01-29 00:58:00,
2013-01-28 19:01:00,68.4,56.6,29.56,SSW,194,15.0,27.0,66,0.00,,---,0.00,VWS V14.01,2013-01-29 01:01:00,
2013-01-28 19:02:00,68.4,56.6,29.56,South,172,13.0,17.0,66,0.00,,---,0.00,VWS V14.01,2013-01-29 01:02:00,
2013-01-28 19:03:00,68.3,56.5,29.56,South,169,9.0,21.0,66,0.00,,---,0.00,VWS V14.01,2013-01-29 01:03:00,
2013-01-28 19:06:00,68.3,56.5,29.56,SSE,164,12.0,21.0,66,0.00,,---,0.00,VWS V14.01,2013-01-29 01:06:00,
2013-01-28 19:07:00,68.1,56.3,29.56,South,179,14.0,21.0,66,0.00,,---,0.00,VWS V14.01,2013-01-29 01:07:00,
2013-01-28 19:09:00,68.1,56.7,29.56,South,180,15.0,22.0,67,0.00,,---,0.00,VWS V14.01,2013-01-29 01:09:00,
2013-01-28 19:11:00,67.9,56.5,29.56,South,171,7.0,22.0,67,0.00,,---,0.00,VWS V14.01,2013-01-29 01:11:00,
2013-01-28 19:12:00,67.9,56.5,29.56,South,175,15.0,17.0,67,0.00,,---,0.00,VWS V14.01,2013-01-29 01:12:00,
2013-01-28 19:13:00,67.9,56.5,29.56,South,188,20.0,21.0,67,0.00,,---,0.00,VWS V14.01,2013-01-29 01:13:00,
2013-01-28 19:14:00,67.9,56.5,29.56,South,182,11.0,21.0,67,0.00,,---,0.00,VWS V14.01,2013-01-29 01:14:00,
2013-01-28 19:16:00,67.9,56.5,29.56,South,172,7.0,21.0,67,0.00,,---,0.00,VWS V14.01,2013-01-29 01:16:00,
2013-01-28 19:17:00,67.9,56.5,29.56,South,183,20.0,21.0,67,0.00,,---,0.00,VWS V14.01,2013-01-29 01:17:00,
2013-01-28 19:18:00,67.9,56.5,29.56,South,176,11.0,21.0,67,0.00,,---,0.00,VWS V14.01,2013-01-29 01:18:00,
2013-01-28 19:19:00,67.9,56.5,29.56,South,175,10.0,21.0,67,0.00,,---,0.00,VWS V14.01,2013-01-29 01:19:00,
2013-01-28 19:21:00,67.8,56.5,29.56,South,179,17.0,21.0,67,0.00,,---,0.00,VWS V14.01,2013-01-29 01:21:00,
2013-01-28 19:22:00,67.8,56.5,29.56,South,174,11.0,19.0,67,0.00,,---,0.00,VWS V14.01,2013-01-29 01:22:00,
2013-01-28 19:23:00,67.8,56.5,29.56,South,172,13.0,19.0,67,0.00,,---,0.00,VWS V14.01,2013-01-29 01:23:00,
2013-01-28 19:24:00,67.8,56.5,29.56,South,176,10.0,20.0,67,0.00,,---,0.00,VWS V14.01,2013-01-29 01:24:00,
2013-01-28 19:26:00,67.9,56.5,29.56,South,185,15.0,24.0,67,0.00,,---,0.00,VWS V14.01,2013-01-29 01:26:00,
2013-01-28 19:27:00,67.9,56.5,29.56,SSE,165,12.0,24.0,67,0.00,,---,0.00,VWS V14.01,2013-01-29 01:27:00,
2013-01-28 19:28:00,67.9,56.5,29.56,South,180,16.0,25.0,67,0.00,,---,0.00,VWS V14.01,2013-01-29 01:28:00,
2013-01-28 19:29:00,67.9,56.5,29.56,South,175,13.0,25.0,67,0.00,,---,0.00,VWS V14.01,2013-01-29 01:29:00,
2013-01-28 19:31:00,67.9,56.5,29.56,South,174,17.0,18.0,67,0.00,,---,0.00,VWS V14.01,2013-01-29 01:31:00,
2013-01-28 19:32:00,67.9,56.5,29.56,South,181,12.0,19.0,67,0.00,,---,0.00,VWS V14.01,2013-01-29 01:32:00,
2013-01-28 19:34:00,67.9,56.5,29.56,South,180,13.0,21.0,67,0.00,,---,0.00,VWS V14.01,2013-01-29 01:34:00,
2013-01-28 19:36:00,67.9,56.5,29.56,SSE,164,18.0,29.0,67,0.00,,---,0.00,VWS V14.01,2013-01-29 01:36:00,
2013-01-28 19:37:00,67.9,56.5,29.56,South,182,16.0,29.0,67,0.00,,---,0.00,VWS V14.01,2013-01-29 01:37:00,
2013-01-28 19:39:00,67.9,56.5,29.56,South,172,20.0,29.0,67,0.00,,---,0.00,VWS V14.01,2013-01-29 01:39:00,
2013-01-28 19:41:00,68.1,56.7,29.56,SSW,192,21.0,25.0,67,0.00,,---,0.00,VWS V14.01,2013-01-29 01:41:00,
2013-01-28 19:42:00,68.1,56.7,29.56,SSW,196,20.0,25.0,67,0.00,,---,0.00,VWS V14.01,2013-01-29 01:42:00,
2013-01-28 19:44:00,68.1,56.7,29.56,South,169,15.0,27.0,67,0.00,,---,0.00,VWS V14.01,2013-01-29 01:44:00,
2013-01-28 19:46:00,68.1,56.7,29.56,South,176,22.0,27.0,67,0.00,,---,0.00,VWS V14.01,2013-01-29 01:46:00,
2013-01-28 19:47:00,68.1,56.7,29.56,South,178,18.0,27.0,67,0.00,,---,0.00,VWS V14.01,2013-01-29 01:47:00,
2013-01-28 19:49:00,67.9,56.5,29.56,South,180,11.0,27.0,67,0.00,,---,0.00,VWS V14.01,2013-01-29 01:49:00,
2013-01-28 22:47:00,66.6,58.1,29.52,South,189,15.0,27.0,74,0.00,,---,0.00,VWS V14.01,2013-01-29 04:47:00,
2013-01-28 22:52:00,66.6,58.1,29.52,South,173,13.0,22.0,74,0.00,,---,0.00,VWS V14.01,2013-01-29 04:52:00,
2013-01-28 22:53:00,66.6,58.1,29.52,South,174,16.0,22.0,74,0.00,,---,0.00,VWS V14.01,2013-01-29 04:53:00,
2013-01-28 22:57:00,66.9,58.3,29.52,South,190,18.0,30.0,74,0.00,,---,0.00,VWS V14.01,2013-01-29 04:57:00,
2013-01-28 22:58:00,66.9,58.3,29.52,South,190,20.0,30.0,74,0.00,,---,0.00,VWS V14.01,2013-01-29 04:58:00,
2013-01-28 23:01:00,66.9,58.3,29.52,SSW,192,27.0,33.0,74,0.00,,---,0.00,VWS V14.01,2013-01-29 05:01:00,
2013-01-28 23:02:00,66.8,58.3,29.52,South,189,22.0,28.0,74,0.00,,---,0.00,VWS V14.01,2013-01-29 05:02:00,
2013-01-28 23:06:00,66.8,58.6,29.52,South,179,17.0,30.0,75,0.00,,---,0.00,VWS V14.01,2013-01-29 05:06:00,
2013-01-28 23:07:00,66.8,58.3,29.52,SSW,196,21.0,30.0,74,0.00,,---,0.00,VWS V14.01,2013-01-29 05:07:00,
2013-01-28 23:11:00,66.4,58.2,29.52,SSW,192,25.0,25.0,75,0.00,,---,0.00,VWS V14.01,2013-01-29 05:11:00,
2013-01-28 23:12:00,66.4,58.2,29.52,South,191,24.0,26.0,75,0.00,,---,0.00,VWS V14.01,2013-01-29 05:12:00,
2013-01-28 23:16:00,66.6,58.4,29.51,South,182,16.0,30.0,75,0.00,,---,0.00,VWS V14.01,2013-01-29 05:16:00,
2013-01-28 23:17:00,66.6,58.4,29.51,South,189,15.0,30.0,75,0.00,,---,0.00,VWS V14.01,2013-01-29 05:17:00,
2013-01-28 23:21:00,66.4,58.2,29.51,South,182,28.0,28.0,75,0.00,,---,0.00,VWS V14.01,2013-01-29 05:21:00,
2013-01-28 23:22:00,66.4,58.6,29.51,SSW,204,25.0,33.0,76,0.00,,---,0.00,VWS V14.01,2013-01-29 05:22:00,
2013-01-28 23:23:00,66.6,58.8,29.51,South,189,25.0,33.0,76,0.00,,---,0.00,VWS V14.01,2013-01-29 05:23:00,
2013-01-28 23:26:00,66.4,58.6,29.51,SSW,192,17.0,33.0,76,0.00,,---,0.00,VWS V14.01,2013-01-29 05:26:00,
2013-01-28 23:27:00,66.4,58.6,29.51,South,191,21.0,33.0,76,0.00,,---,0.00,VWS V14.01,2013-01-29 05:27:00,
2013-01-28 23:28:00,66.4,58.6,29.51,South,187,19.0,33.0,76,0.00,,---,0.00,VWS V14.01,2013-01-29 05:28:00,
2013-01-28 23:31:00,66.3,58.5,29.52,SSW,192,16.0,27.0,76,0.00,,---,0.00,VWS V14.01,2013-01-29 05:31:00,
2013-01-28 23:32:00,66.3,58.5,29.52,South,189,23.0,29.0,76,0.00,,---,0.00,VWS V14.01,2013-01-29 05:32:00,
2013-01-28 23:33:00,66.3,58.5,29.52,SSW,202,21.0,29.0,76,0.00,,---,0.00,VWS V14.01,2013-01-29 05:33:00,
2013-01-28 23:36:00,66.1,58.7,29.52,South,188,24.0,30.0,77,0.00,,---,0.00,VWS V14.01,2013-01-29 05:36:00,
2013-01-28 23:38:00,66.1,58.7,29.52,SSW,193,18.0,30.0,77,0.00,,---,0.00,VWS V14.01,2013-01-29 05:38:00,
2013-01-28 23:41:00,66.0,58.6,29.52,South,191,18.0,26.0,77,0.00,,---,0.00,VWS V14.01,2013-01-29 05:41:00,
2013-01-28 23:43:00,66.0,58.6,29.52,SSW,193,23.0,26.0,77,0.00,,---,0.00,VWS V14.01,2013-01-29 05:43:00,
2013-01-28 23:47:00,65.8,58.8,29.51,South,186,22.0,27.0,78,0.00,,---,0.00,VWS V14.01,2013-01-29 05:47:00,
2013-01-28 23:48:00,65.8,58.8,29.51,South,178,15.0,27.0,78,0.00,,---,0.00,VWS V14.01,2013-01-29 05:48:00,
2013-01-28 23:52:00,65.8,58.4,29.51,SSW,193,16.0,25.0,77,0.00,,---,0.00,VWS V14.01,2013-01-29 05:52:00,
2013-01-28 23:53:00,65.8,58.4,29.51,South,172,15.0,26.0,77,0.00,,---,0.00,VWS V14.01,2013-01-29 05:53:00,
2013-01-28 23:54:00,65.8,58.4,29.51,South,186,16.0,26.0,77,0.00,,---,0.00,VWS V14.01,2013-01-29 05:54:00,
2013-01-28 23:57:00,65.8,58.4,29.51,SSW,197,19.0,30.0,77,0.00,,---,0.00,VWS V14.01,2013-01-29 05:57:00,
2013-01-28 23:58:00,65.8,58.4,29.51,SSW,196,14.0,30.0,77,0.00,,---,0.00,VWS V14.01,2013-01-29 05:58:00,
2013-01-28 23:59:00,65.8,58.4,29.51,SSW,196,18.0,30.0,77,0.00,,---,0.00,VWS V14.01,2013-01-29 05:59:00,